ProjectID,Date,Electric Generation,Electric Utility Import,Facility Electric Load
,YYYY-MM-DD,kW,kW,kW
419,2017-01-01,0.0,136.45833333333334,136.45833333333334
419,2017-01-02,0.0,181.16666666666666,181.16666666666666
419,2017-01-03,0.0,156.57291666666666,156.57291666666666
419,2017-01-04,0.0,93.03125,93.03125
419,2017-01-05,0.0,48.583333333333336,48.583333333333336
419,2017-01-06,0.0,55.1875,55.1875
419,2017-01-07,0.0,58.072916666666664,58.072916666666664
419,2017-01-08,0.0,75.01041666666667,75.01041666666667
419,2017-01-09,0.0,133.76041666666666,133.76041666666666
419,2017-01-10,0.0,144.32291666666666,144.32291666666666
419,2017-01-11,0.0,34.9375,34.9375
419,2017-01-12,0.0,15.322916666666666,15.322916666666666
419,2017-01-13,0.0,44.84375,44.84375
419,2017-01-14,0.0,75.73958333333333,75.73958333333333
419,2017-01-15,0.0,71.97916666666667,71.97916666666667
419,2017-01-16,0.0,34.270833333333336,34.270833333333336
419,2017-01-17,0.0,52.145833333333336,52.145833333333336
419,2017-01-18,0.0,52.729166666666664,52.729166666666664
419,2017-01-19,0.0,27.166666666666668,27.166666666666668
419,2017-01-20,0.0,52.864583333333336,52.864583333333336
419,2017-01-21,61.302083333333336,16.052083333333332,77.35416666666667
419,2017-01-22,106.98958333333333,15.770833333333334,122.76041666666666
419,2017-01-23,127.17708333333333,22.177083333333332,149.35416666666666
419,2017-01-24,107.640625,128.60416666666666,236.24479166666666
419,2017-01-25,147.07291666666666,140.13541666666666,287.2083333333333
419,2017-01-26,139.73958333333334,128.20833333333334,267.9479166666667
419,2017-01-27,137.0,67.32291666666667,204.32291666666669
419,2017-01-28,91.94791666666667,113.42708333333333,205.375
419,2017-01-29,127.5625,46.708333333333336,174.27083333333334
419,2017-01-30,132.29166666666666,32.604166666666664,164.89583333333331
419,2017-01-31,145.69791666666666,85.90625,231.60416666666666
419,2017-02-01,141.64583333333334,85.80208333333333,227.44791666666669
419,2017-02-02,133.84375,69.59375,203.4375
419,2017-02-03,144.59375,129.41666666666666,274.01041666666663
419,2017-02-04,147.22916666666666,171.46875,318.69791666666663
419,2017-02-05,146.92708333333334,55.520833333333336,202.44791666666669
419,2017-02-06,141.51041666666666,59.083333333333336,200.59375
419,2017-02-07,140.4375,102.04166666666667,242.47916666666669
419,2017-02-08,144.1875,85.4375,229.625
419,2017-02-09,146.875,164.69791666666666,311.57291666666663
419,2017-02-10,147.1875,198.02083333333334,345.20833333333337
419,2017-02-11,135.64583333333334,86.21875,221.86458333333334
419,2017-02-12,108.5625,15.385416666666666,123.94791666666667
419,2017-02-13,128.19791666666666,109.55208333333333,237.75
419,2017-02-14,146.14583333333334,189.25,335.39583333333337
419,2017-02-15,145.6875,166.66666666666666,312.35416666666663
419,2017-02-16,145.875,83.95833333333333,229.83333333333331
419,2017-02-17,136.90625,107.19791666666667,244.10416666666669
419,2017-02-18,123.14583333333333,29.854166666666668,153.0
419,2017-02-19,102.94791666666667,15.729166666666666,118.67708333333334
419,2017-02-20,103.05208333333333,15.239583333333334,118.29166666666666
419,2017-02-21,109.5625,18.15625,127.71875
419,2017-02-22,107.859375,16.489583333333332,124.34895833333333
419,2017-02-23,108.95833333333333,16.510416666666668,125.46875
419,2017-02-24,106.51041666666667,15.447916666666666,121.95833333333334
419,2017-02-25,105.04166666666667,15.416666666666666,120.45833333333334
419,2017-02-26,99.72916666666667,15.927083333333334,115.65625
419,2017-02-27,106.73958333333333,15.802083333333334,122.54166666666666
419,2017-02-28,109.70833333333333,15.010416666666666,124.71875
419,2017-03-01,109.5625,15.416666666666666,124.97916666666667
419,2017-03-02,106.23958333333333,15.333333333333334,121.57291666666666
419,2017-03-03,129.28125,42.645833333333336,171.92708333333334
419,2017-03-04,146.63541666666666,106.82291666666667,253.45833333333331
419,2017-03-05,146.64583333333334,71.65625,218.30208333333334
419,2017-03-06,142.42708333333334,61.010416666666664,203.4375
419,2017-03-07,112.95833333333333,16.3125,129.27083333333331
419,2017-03-08,106.98958333333333,15.833333333333334,122.82291666666666
419,2017-03-09,107.47916666666667,16.541666666666668,124.02083333333334
419,2017-03-10,118.73958333333333,31.541666666666668,150.28125
419,2017-03-11,146.98958333333334,76.11458333333333,223.10416666666669
419,2017-03-12,139.234375,62.135416666666664,201.36979166666666
419,2017-03-13,147.01041666666666,107.40625,254.41666666666666
419,2017-03-14,147.01041666666666,136.6875,283.69791666666663
419,2017-03-15,146.69791666666666,128.98958333333334,275.6875
419,2017-03-16,135.08333333333334,101.60416666666667,236.6875
419,2017-03-17,146.5,76.59375,223.09375
419,2017-03-18,140.60416666666666,28.770833333333332,169.375
419,2017-03-19,144.07291666666666,38.958333333333336,183.03125
419,2017-03-20,139.51041666666666,44.739583333333336,184.25
419,2017-03-21,134.67708333333334,28.395833333333332,163.07291666666669
419,2017-03-22,137.07291666666666,74.10416666666667,211.17708333333331
419,2017-03-23,147.14583333333334,115.17708333333333,262.3229166666667
419,2017-03-24,145.14583333333334,58.4375,203.58333333333334
419,2017-03-25,133.51041666666666,23.135416666666668,156.64583333333331
419,2017-03-26,115.44791666666667,15.729166666666666,131.17708333333334
419,2017-03-27,111.76041666666667,15.770833333333334,127.53125
419,2017-03-28,105.17708333333333,15.510416666666666,120.6875
419,2017-03-29,97.27083333333333,23.177083333333332,120.44791666666666
419,2017-03-30,113.66666666666667,15.427083333333334,129.09375
419,2017-03-31,109.875,16.65625,126.53125
419,2017-04-01,93.625,15.072916666666666,108.69791666666667
419,2017-04-02,91.39583333333333,15.322916666666666,106.71875
419,2017-04-03,91.28125,16.53125,107.8125
419,2017-04-04,103.375,15.59375,118.96875
419,2017-04-05,102.25,15.9375,118.1875
419,2017-04-06,100.17708333333333,16.260416666666668,116.4375
419,2017-04-07,94.77083333333333,15.416666666666666,110.1875
419,2017-04-08,89.16666666666667,14.958333333333334,104.125
419,2017-04-09,86.625,15.15625,101.78125
419,2017-04-10,90.34375,15.0,105.34375
419,2017-04-11,97.70833333333333,16.833333333333332,114.54166666666666
419,2017-04-12,101.66666666666667,16.583333333333332,118.25
419,2017-04-13,99.46875,16.1875,115.65625
419,2017-04-14,94.71875,15.8125,110.53125
419,2017-04-15,87.42708333333333,15.833333333333334,103.26041666666666
419,2017-04-16,87.33333333333333,15.135416666666666,102.46875
419,2017-04-17,94.89583333333333,15.447916666666666,110.34375
419,2017-04-18,99.625,16.427083333333332,116.05208333333333
419,2017-04-19,101.60416666666667,15.947916666666666,117.55208333333334
419,2017-04-20,98.94791666666667,15.927083333333334,114.875
419,2017-04-21,99.1875,16.479166666666668,115.66666666666667
419,2017-04-22,93.67708333333333,15.927083333333334,109.60416666666666
419,2017-04-23,90.0,15.229166666666666,105.22916666666667
419,2017-04-24,111.01041666666667,17.979166666666668,128.98958333333334
419,2017-04-25,124.35416666666667,17.458333333333332,141.8125
419,2017-04-26,120.51041666666667,17.84375,138.35416666666669
419,2017-04-27,118.92708333333333,16.166666666666668,135.09375
419,2017-04-28,118.72916666666667,17.0,135.72916666666669
419,2017-04-29,115.80208333333333,15.59375,131.39583333333331
419,2017-04-30,113.77083333333333,15.5,129.27083333333331
419,2017-05-01,113.91666666666667,16.802083333333332,130.71875
419,2017-05-02,118.48958333333333,15.75,134.23958333333331
419,2017-05-03,118.77083333333333,15.927083333333334,134.69791666666666
419,2017-05-04,121.17708333333333,17.197916666666668,138.375
419,2017-05-05,122.79166666666667,18.71875,141.51041666666669
419,2017-05-06,118.3125,16.5,134.8125
419,2017-05-07,113.03125,15.5,128.53125
419,2017-05-08,125.60416666666667,15.5,141.10416666666669
419,2017-05-09,122.90625,15.25,138.15625
419,2017-05-10,124.0,15.46875,139.46875
419,2017-05-11,117.64583333333333,16.09375,133.73958333333331
419,2017-05-12,118.20833333333333,16.645833333333332,134.85416666666666
419,2017-05-13,115.71875,15.791666666666666,131.51041666666666
419,2017-05-14,37.5625,83.01041666666667,120.57291666666667
419,2017-05-15,62.125,60.125,122.25
419,2017-05-16,117.66666666666667,17.104166666666668,134.77083333333334
419,2017-05-17,122.38541666666667,22.0625,144.44791666666669
419,2017-05-18,127.19791666666667,24.635416666666668,151.83333333333334
419,2017-05-19,125.34375,24.010416666666668,149.35416666666666
419,2017-05-20,120.07291666666667,15.5,135.57291666666669
419,2017-05-21,107.46875,23.114583333333332,130.58333333333334
419,2017-05-22,121.25,16.833333333333332,138.08333333333334
419,2017-05-23,120.86458333333333,16.9375,137.80208333333331
419,2017-05-24,120.19791666666667,16.395833333333332,136.59375
419,2017-05-25,118.78125,15.802083333333334,134.58333333333334
419,2017-05-26,119.4375,15.59375,135.03125
419,2017-05-27,114.02083333333333,15.59375,129.61458333333331
419,2017-05-28,112.13541666666667,14.90625,127.04166666666667
419,2017-05-29,113.88541666666667,15.78125,129.66666666666669
419,2017-05-30,118.75,15.40625,134.15625
419,2017-05-31,109.29166666666667,30.739583333333332,140.03125
419,2017-06-01,128.15625,18.583333333333332,146.73958333333334
419,2017-06-02,124.4375,16.25,140.6875
419,2017-06-03,110.625,15.145833333333334,125.77083333333333
419,2017-06-04,106.64583333333333,15.71875,122.36458333333333
419,2017-06-05,118.8125,21.489583333333332,140.30208333333334
419,2017-06-06,120.28125,15.46875,135.75
419,2017-06-07,116.9375,15.947916666666666,132.88541666666666
419,2017-06-08,117.61458333333333,16.041666666666668,133.65625
419,2017-06-09,123.28125,17.510416666666668,140.79166666666666
419,2017-06-10,126.58333333333333,18.583333333333332,145.16666666666666
419,2017-06-11,127.86458333333333,18.864583333333332,146.72916666666666
419,2017-06-12,127.69791666666667,29.96875,157.66666666666669
419,2017-06-13,127.39583333333333,28.666666666666668,156.0625
419,2017-06-14,129.72916666666666,29.072916666666668,158.80208333333331
419,2017-06-15,131.38541666666666,26.0,157.38541666666666
419,2017-06-16,130.6875,25.5,156.1875
419,2017-06-17,126.65625,20.15625,146.8125
419,2017-06-18,125.83333333333333,22.041666666666668,147.875
419,2017-06-19,127.73958333333333,30.96875,158.70833333333331
419,2017-06-20,127.73958333333333,24.833333333333332,152.57291666666666
419,2017-06-21,126.85416666666667,23.322916666666668,150.17708333333334
419,2017-06-22,104.91145833333333,46.072916666666664,150.984375
419,2017-06-23,129.609375,26.791666666666668,156.40104166666666
419,2017-06-24,131.0625,18.25,149.3125
419,2017-06-25,126.05208333333333,15.385416666666666,141.4375
419,2017-06-26,129.03645833333334,22.583333333333332,151.61979166666669
419,2017-06-27,95.44791666666667,51.885416666666664,147.33333333333334
419,2017-06-28,111.44791666666667,35.020833333333336,146.46875
419,2017-06-29,102.5625,48.708333333333336,151.27083333333334
419,2017-06-30,61.348958333333336,94.79166666666667,156.140625
419,2017-07-01,106.89583333333333,50.15625,157.05208333333331
419,2017-07-02,107.01041666666667,50.708333333333336,157.71875
419,2017-07-03,101.50520833333333,55.083333333333336,156.58854166666666
419,2017-07-04,107.10416666666667,41.020833333333336,148.125
419,2017-07-05,105.828125,43.489583333333336,149.31770833333334
419,2017-07-06,97.078125,47.989583333333336,145.06770833333334
419,2017-07-07,46.984375,103.97916666666667,150.96354166666669
419,2017-07-08,106.91666666666667,53.354166666666664,160.27083333333334
419,2017-07-09,107.10416666666667,45.166666666666664,152.27083333333334
419,2017-07-10,106.98958333333333,48.083333333333336,155.07291666666666
419,2017-07-11,106.98958333333333,58.229166666666664,165.21875
419,2017-07-12,106.95833333333333,58.75,165.70833333333331
419,2017-07-13,98.08333333333333,78.27083333333333,176.35416666666666
419,2017-07-14,96.88020833333333,52.927083333333336,149.80729166666666
419,2017-07-15,107.07291666666667,52.59375,159.66666666666669
419,2017-07-16,106.9375,49.833333333333336,156.77083333333334
419,2017-07-17,107.0625,56.729166666666664,163.79166666666666
419,2017-07-18,106.96875,63.375,170.34375
419,2017-07-19,107.01041666666667,85.63541666666667,192.64583333333334
419,2017-07-20,107.0,89.01041666666667,196.01041666666669
419,2017-07-21,107.02083333333333,91.625,198.64583333333331
419,2017-07-22,107.02083333333333,88.4375,195.45833333333331
419,2017-07-23,107.01041666666667,68.125,175.13541666666669
419,2017-07-24,107.19791666666667,52.927083333333336,160.125
419,2017-07-25,107.08333333333333,47.791666666666664,154.875
419,2017-07-26,107.0625,50.354166666666664,157.41666666666666
419,2017-07-27,106.95833333333333,56.75,163.70833333333331
419,2017-07-28,97.00520833333333,56.458333333333336,153.46354166666666
419,2017-07-29,93.26041666666667,44.020833333333336,137.28125
419,2017-07-30,107.04166666666667,47.291666666666664,154.33333333333334
419,2017-07-31,107.07291666666667,51.885416666666664,158.95833333333334
419,2017-08-01,107.01041666666667,71.34375,178.35416666666669
419,2017-08-02,137.83333333333334,36.822916666666664,174.65625
419,2017-08-03,142.06770833333334,32.177083333333336,174.24479166666669
419,2017-08-04,157.5625,17.291666666666668,174.85416666666666
419,2017-08-05,142.45833333333334,15.885416666666666,158.34375
419,2017-08-06,138.46875,15.708333333333334,154.17708333333334
419,2017-08-07,137.78125,15.28125,153.0625
419,2017-08-08,137.23958333333334,15.239583333333334,152.47916666666669
419,2017-08-09,142.51041666666666,15.885416666666666,158.39583333333331
419,2017-08-10,143.51041666666666,15.677083333333334,159.1875
419,2017-08-11,145.71875,15.270833333333334,160.98958333333334
419,2017-08-12,138.96875,15.854166666666666,154.82291666666666
419,2017-08-13,141.78125,15.333333333333334,157.11458333333334
419,2017-08-14,149.75,15.072916666666666,164.82291666666666
419,2017-08-15,150.60416666666666,15.708333333333334,166.3125
419,2017-08-16,154.46875,15.239583333333334,169.70833333333334
419,2017-08-17,151.28125,15.239583333333334,166.52083333333334
419,2017-08-18,162.90625,15.270833333333334,178.17708333333334
419,2017-08-19,156.92708333333334,15.427083333333334,172.35416666666669
419,2017-08-20,147.14583333333334,15.364583333333334,162.51041666666669
419,2017-08-21,158.85416666666666,15.90625,174.76041666666666
419,2017-08-22,162.80208333333334,16.114583333333332,178.91666666666669
419,2017-08-23,81.02604166666667,85.69791666666667,166.72395833333334
419,2017-08-24,90.54166666666667,68.83333333333333,159.375
419,2017-08-25,122.921875,31.322916666666668,154.24479166666666
419,2017-08-26,134.78125,15.5,150.28125
419,2017-08-27,124.6875,15.416666666666666,140.10416666666666
419,2017-08-28,127.71875,15.03125,142.75
419,2017-08-29,126.375,15.552083333333334,141.92708333333334
419,2017-08-30,129.22916666666666,15.416666666666666,144.64583333333331
419,2017-08-31,132.9375,15.739583333333334,148.67708333333334
419,2017-09-01,128.25,15.3125,143.5625
419,2017-09-02,123.51041666666667,15.916666666666666,139.42708333333334
419,2017-09-03,123.5,15.302083333333334,138.80208333333334
419,2017-09-04,127.83333333333333,15.78125,143.61458333333331
419,2017-09-05,143.76041666666666,15.552083333333334,159.3125
419,2017-09-06,137.27083333333334,15.854166666666666,153.125
419,2017-09-07,129.45833333333334,15.875,145.33333333333334
419,2017-09-08,127.66666666666667,15.322916666666666,142.98958333333334
419,2017-09-09,121.11458333333333,15.6875,136.80208333333331
419,2017-09-10,123.79166666666667,15.270833333333334,139.0625
419,2017-09-11,126.04166666666667,15.322916666666666,141.36458333333334
419,2017-09-12,131.19791666666666,15.78125,146.97916666666666
419,2017-09-13,134.13541666666666,15.541666666666666,149.67708333333331
419,2017-09-14,137.52083333333334,15.21875,152.73958333333334
419,2017-09-15,143.96875,15.520833333333334,159.48958333333334
419,2017-09-16,141.47916666666666,15.114583333333334,156.59375
419,2017-09-17,141.45833333333334,15.364583333333334,156.82291666666669
419,2017-09-18,128.79166666666666,27.34375,156.13541666666666
419,2017-09-19,134.33333333333334,18.239583333333332,152.57291666666669
419,2017-09-20,155.98958333333334,15.520833333333334,171.51041666666669
419,2017-09-21,160.76041666666666,15.375,176.13541666666666
419,2017-09-22,161.46875,15.802083333333334,177.27083333333334
419,2017-09-23,160.82291666666666,15.96875,176.79166666666666
419,2017-09-24,162.35416666666666,15.822916666666666,178.17708333333331
419,2017-09-25,164.55208333333334,16.958333333333332,181.51041666666669
419,2017-09-26,117.40104166666667,13.114583333333334,130.515625
419,2017-09-27,0.0,121.39583333333333,121.39583333333333
419,2017-09-28,0.0,167.25,167.25
419,2017-09-29,0.0,148.8125,148.8125
419,2017-09-30,0.0,137.38541666666666,137.38541666666666
